Zurück zum Katalog

DMSP 5D-2 F14 DEB

AktivPO
NORAD 62941·DEBRIS·🇺🇸 United States

Gestartet Apr 4, 1997 von Vandenberg Space Force Base

Loading…

Nächste Überflüge (nächste 24 Stunden)

TLE

AktuellSource: Space-Track

Epoche: Sep 14, 2026, 22:30 UTC

1 62941U 97012M   26257.93756957  .00031805  00000-0  10883-1 0  9992
2 62941  99.4858 332.6591 0063713 212.1307 147.5985 14.34986547521088

Verfolge DMSP 5D-2 F14 DEB in Echtzeit mit AllMySat

Download on the App Store